Time,TemperatureF,DewpointF,PressureIn,WindDirection,WindDirectionDegrees,WindSpeedMPH,WindSpeedGustMPH,Humidity,HourlyPrecipIn,Conditions,Clouds,dailyrainin,SoftwareType,DateUTC
2013-05-09 00:03:00,63.0,58.0,29.99,NNW,330,0.0,0.0,83,0.00,,,0.00,,2013-05-09 04:03:00,
2013-05-09 00:12:00,63.0,58.0,29.99,NNW,330,0.0,0.0,83,0.00,,,0.00,,2013-05-09 04:12:00,
2013-05-09 00:23:00,63.0,58.0,29.98,NNW,330,0.0,0.0,83,0.00,,,0.00,,2013-05-09 04:23:00,
2013-05-09 00:33:00,62.0,58.0,29.98,NNW,330,0.0,0.0,87,0.00,,,0.00,,2013-05-09 04:33:00,
2013-05-09 00:43:00,62.0,58.0,29.98,NNW,330,0.0,0.0,87,0.00,,,0.00,,2013-05-09 04:43:00,
2013-05-09 00:53:00,61.0,57.0,29.98,NNW,330,0.0,0.0,86,0.00,,,0.00,,2013-05-09 04:53:00,
2013-05-09 01:02:00,61.0,57.0,29.98,NNW,330,0.0,0.0,86,0.00,,,0.00,,2013-05-09 05:02:00,
2013-05-09 01:12:00,61.0,57.0,29.98,NNW,330,0.0,0.0,86,0.00,,,0.00,,2013-05-09 05:12:00,
2013-05-09 01:22:00,60.0,56.0,29.98,NNW,330,0.0,0.0,86,0.00,,,0.00,,2013-05-09 05:22:00,
2013-05-09 01:32:00,60.0,56.0,29.97,NNW,330,0.0,0.0,88,0.00,,,0.00,,2013-05-09 05:32:00,
2013-05-09 01:42:00,59.0,56.0,29.97,NNW,330,0.0,0.0,89,0.00,,,0.00,,2013-05-09 05:42:00,
2013-05-09 01:52:00,59.0,56.0,29.97,NNW,330,0.0,0.0,89,0.00,,,0.00,,2013-05-09 05:52:00,
2013-05-09 02:02:00,58.0,55.0,29.97,NNW,330,0.0,0.0,89,0.00,,,0.00,,2013-05-09 06:02:00,
2013-05-09 02:11:00,58.0,55.0,29.97,NNW,330,0.0,0.0,89,0.00,,,0.00,,2013-05-09 06:11:00,
2013-05-09 02:21:00,58.0,55.0,29.97,NNW,330,0.0,0.0,89,0.00,,,0.00,,2013-05-09 06:21:00,
2013-05-09 02:32:00,57.0,54.0,29.97,NNW,330,0.0,0.0,90,0.00,,,0.00,,2013-05-09 06:32:00,
2013-05-09 02:42:00,57.0,54.0,29.96,NNW,330,0.0,0.0,91,0.00,,,0.00,,2013-05-09 06:42:00,
2013-05-09 02:52:00,57.0,54.0,29.96,NNW,330,0.0,0.0,91,0.00,,,0.00,,2013-05-09 06:52:00,
2013-05-09 03:01:00,57.0,54.0,29.96,NNW,330,0.0,0.0,91,0.00,,,0.00,,2013-05-09 07:01:00,
2013-05-09 03:12:00,56.0,53.0,29.95,NNW,330,0.0,0.0,91,0.00,,,0.00,,2013-05-09 07:12:00,
2013-05-09 03:21:00,56.0,53.0,29.95,NNW,330,0.0,0.0,91,0.00,,,0.00,,2013-05-09 07:21:00,
2013-05-09 03:32:00,56.0,54.0,29.96,NNW,330,0.0,0.0,92,0.00,,,0.00,,2013-05-09 07:32:00,
2013-05-09 03:42:00,56.0,54.0,29.96,NNW,330,0.0,0.0,92,0.00,,,0.00,,2013-05-09 07:42:00,
2013-05-09 03:52:00,55.0,53.0,29.96,NNW,330,0.0,0.0,92,0.00,,,0.00,,2013-05-09 07:52:00,
2013-05-09 04:02:00,55.0,53.0,29.96,NNW,330,0.0,0.0,93,0.00,,,0.00,,2013-05-09 08:02:00,
2013-05-09 04:11:00,55.0,53.0,29.96,NNW,330,0.0,0.0,93,0.00,,,0.00,,2013-05-09 08:11:00,
2013-05-09 04:21:00,55.0,53.0,29.96,NNW,330,0.0,0.0,93,0.00,,,0.00,,2013-05-09 08:21:00,
2013-05-09 04:31:00,55.0,53.0,29.96,NNW,330,0.0,0.0,94,0.00,,,0.00,,2013-05-09 08:31:00,
2013-05-09 04:42:00,55.0,53.0,29.96,NNW,330,0.0,0.0,94,0.00,,,0.00,,2013-05-09 08:42:00,
2013-05-09 04:52:00,55.0,53.0,29.96,NNW,330,0.0,0.0,94,0.00,,,0.00,,2013-05-09 08:52:00,
2013-05-09 05:02:00,54.0,52.0,29.96,NNW,330,0.0,0.0,94,0.00,,,0.00,,2013-05-09 09:02:00,
2013-05-09 05:11:00,54.0,52.0,29.96,NNW,330,0.0,0.0,94,0.00,,,0.00,,2013-05-09 09:11:00,
2013-05-09 05:21:00,54.0,52.0,29.97,NNW,330,0.0,0.0,94,0.00,,,0.00,,2013-05-09 09:21:00,
2013-05-09 05:32:00,54.0,52.0,29.96,NNW,330,0.0,0.0,94,0.00,,,0.00,,2013-05-09 09:32:00,
2013-05-09 05:42:00,54.0,53.0,29.96,NNW,330,0.0,0.0,95,0.00,,,0.00,,2013-05-09 09:42:00,
2013-05-09 05:53:00,54.0,53.0,29.96,NNW,330,0.0,0.0,95,0.00,,,0.00,,2013-05-09 09:53:00,
2013-05-09 06:02:00,54.0,53.0,29.96,NNW,330,0.0,0.0,95,0.00,,,0.00,,2013-05-09 10:02:00,
2013-05-09 06:12:00,54.0,53.0,29.97,NNW,330,0.0,0.0,95,0.00,,,0.00,,2013-05-09 10:12:00,
2013-05-09 06:22:00,54.0,53.0,29.97,NNW,330,0.0,0.0,95,0.00,,,0.00,,2013-05-09 10:22:00,
2013-05-09 06:33:00,54.0,53.0,29.97,NNW,330,0.0,0.0,95,0.00,,,0.00,,2013-05-09 10:33:00,
2013-05-09 06:42:00,53.0,52.0,29.97,NNW,330,0.0,0.0,95,0.00,,,0.00,,2013-05-09 10:42:00,
2013-05-09 06:52:00,53.0,52.0,29.97,NNW,330,0.0,0.0,95,0.00,,,0.00,,2013-05-09 10:52:00,
2013-05-09 07:02:00,53.0,52.0,29.96,NNW,330,0.0,0.0,95,0.00,,,0.00,,2013-05-09 11:02:00,
2013-05-09 07:12:00,54.0,53.0,29.96,NNW,330,0.0,0.0,96,0.00,,,0.00,,2013-05-09 11:12:00,
2013-05-09 07:22:00,54.0,53.0,29.96,NNW,330,0.0,0.0,96,0.00,,,0.00,,2013-05-09 11:22:00,
2013-05-09 07:32:00,54.0,53.0,29.97,NNW,330,0.0,0.0,96,0.00,,,0.00,,2013-05-09 11:32:00,
2013-05-09 07:41:00,54.0,53.0,29.97,NNW,330,0.0,0.0,96,0.00,,,0.00,,2013-05-09 11:41:00,
2013-05-09 07:52:00,54.0,53.0,29.97,NNW,330,0.0,0.0,96,0.00,,,0.00,,2013-05-09 11:52:00,
2013-05-09 08:01:00,55.0,54.0,29.98,NNW,330,0.0,0.0,97,0.00,,,0.00,,2013-05-09 12:01:00,
2013-05-09 08:11:00,56.0,55.0,29.98,NNW,330,0.0,0.0,97,0.00,,,0.00,,2013-05-09 12:11:00,
2013-05-09 08:22:00,56.0,55.0,29.98,NNW,330,0.0,0.0,97,0.00,,,0.00,,2013-05-09 12:22:00,
2013-05-09 08:31:00,56.0,55.0,29.98,NNW,330,0.0,0.0,97,0.00,,,0.00,,2013-05-09 12:31:00,
2013-05-09 08:42:00,57.0,56.0,29.98,NNW,330,0.0,0.0,97,0.00,,,0.00,,2013-05-09 12:42:00,
2013-05-09 08:52:00,57.0,56.0,29.98,NNW,330,0.0,0.0,97,0.00,,,0.00,,2013-05-09 12:52:00,
2013-05-09 09:01:00,58.0,57.0,29.98,NW,307,0.0,0.0,97,0.00,,,0.00,,2013-05-09 13:01:00,
2013-05-09 09:12:00,58.0,57.0,29.98,NW,307,0.0,0.0,97,0.00,,,0.00,,2013-05-09 13:12:00,
2013-05-09 09:21:00,59.0,58.0,29.98,NW,307,0.0,0.0,97,0.00,,,0.00,,2013-05-09 13:21:00,
2013-05-09 09:32:00,60.0,58.0,29.98,NW,307,0.0,0.0,94,0.00,,,0.00,,2013-05-09 13:32:00,
2013-05-09 09:42:00,63.0,60.0,29.98,NW,306,0.0,1.0,89,0.00,,,0.00,,2013-05-09 13:42:00,
2013-05-09 09:52:00,63.0,60.0,29.98,NW,306,0.0,1.0,89,0.00,,,0.00,,2013-05-09 13:52:00,
2013-05-09 10:01:00,65.0,59.0,29.98,NW,306,0.0,1.0,82,0.00,,,0.00,,2013-05-09 14:01:00,
2013-05-09 10:11:00,65.0,59.0,29.98,NW,306,0.0,1.0,82,0.00,,,0.00,,2013-05-09 14:11:00,
2013-05-09 10:21:00,67.0,61.0,29.98,NW,306,0.0,1.0,81,0.00,,,0.00,,2013-05-09 14:21:00,
2013-05-09 10:32:00,69.0,61.0,29.98,NW,311,0.0,2.0,77,0.00,,,0.00,,2013-05-09 14:32:00,
2013-05-09 10:41:00,72.0,63.0,29.98,West,265,1.0,3.0,73,0.00,,,0.00,,2013-05-09 14:41:00,
2013-05-09 10:52:00,72.0,63.0,29.98,West,265,1.0,3.0,73,0.00,,,0.00,,2013-05-09 14:52:00,
2013-05-09 11:01:00,73.0,62.0,29.99,SSW,194,0.0,3.0,68,0.00,,,0.00,,2013-05-09 15:01:00,
2013-05-09 11:11:00,73.0,62.0,29.99,SSW,194,0.0,3.0,68,0.00,,,0.00,,2013-05-09 15:11:00,
2013-05-09 11:22:00,75.0,62.0,29.99,SSW,200,1.0,3.0,64,0.00,,,0.00,,2013-05-09 15:22:00,
2013-05-09 11:33:00,76.0,61.0,29.99,NW,309,1.0,4.0,59,0.00,,,0.00,,2013-05-09 15:33:00,
2013-05-09 11:43:00,77.0,61.0,29.99,NW,306,1.0,4.0,58,0.00,,,0.00,,2013-05-09 15:43:00,
2013-05-09 11:53:00,77.0,61.0,29.99,NW,306,1.0,4.0,58,0.00,,,0.00,,2013-05-09 15:53:00,
2013-05-09 12:03:00,76.0,61.0,29.99,NW,318,1.0,3.0,59,0.00,,,0.00,,2013-05-09 16:03:00,
2013-05-09 12:12:00,76.0,61.0,29.99,NW,318,1.0,3.0,59,0.00,,,0.00,,2013-05-09 16:12:00,
2013-05-09 12:22:00,76.0,62.0,29.99,NW,308,0.0,3.0,61,0.00,,,0.00,,2013-05-09 16:22:00,
2013-05-09 12:33:00,75.0,61.0,29.99,West,268,0.0,3.0,62,0.00,,,0.00,,2013-05-09 16:33:00,
2013-05-09 12:42:00,75.0,61.0,30.00,NW,322,3.0,7.0,62,0.00,,,0.00,,2013-05-09 16:42:00,
2013-05-09 12:53:00,75.0,61.0,30.00,NW,322,3.0,7.0,62,0.00,,,0.00,,2013-05-09 16:53:00,
2013-05-09 13:02:00,74.0,62.0,30.00,NW,318,7.0,12.0,66,0.00,,,0.00,,2013-05-09 17:02:00,
2013-05-09 13:12:00,74.0,62.0,30.00,NW,318,7.0,12.0,66,0.00,,,0.00,,2013-05-09 17:12:00,
2013-05-09 13:21:00,72.0,61.0,30.01,NW,317,6.0,10.0,69,0.00,,,0.00,,2013-05-09 17:21:00,
2013-05-09 13:32:00,70.0,61.0,30.01,NW,315,5.0,9.0,73,0.00,,,0.00,,2013-05-09 17:32:00,
2013-05-09 13:42:00,70.0,61.0,30.01,NW,315,5.0,9.0,73,0.00,,,0.00,,2013-05-09 17:42:00,
2013-05-09 13:55:00,68.0,62.0,30.02,NW,317,3.0,10.0,80,0.00,,,0.00,,2013-05-09 17:55:00,
2013-05-09 14:01:00,66.0,61.0,30.01,NW,317,1.0,5.0,85,0.01,,,0.01,,2013-05-09 18:01:00,
2013-05-09 14:12:00,66.0,61.0,30.01,NW,317,1.0,5.0,85,0.01,,,0.01,,2013-05-09 18:12:00,
2013-05-09 14:21:00,65.0,62.0,30.00,NW,317,0.0,0.0,89,0.02,,,0.02,,2013-05-09 18:21:00,
2013-05-09 14:31:00,64.0,62.0,30.00,NW,317,0.0,1.0,92,0.03,,,0.03,,2013-05-09 18:31:00,
2013-05-09 14:42:00,64.0,62.0,30.00,NW,317,0.0,1.0,92,0.03,,,0.03,,2013-05-09 18:42:00,
2013-05-09 14:52:00,64.0,62.0,29.99,West,276,0.0,4.0,94,0.04,,,0.04,,2013-05-09 18:52:00,
2013-05-09 15:01:00,65.0,64.0,29.98,West,259,0.0,2.0,95,0.03,,,0.04,,2013-05-09 19:01:00,
2013-05-09 15:11:00,65.0,64.0,29.98,West,259,0.0,2.0,95,0.03,,,0.04,,2013-05-09 19:11:00,
2013-05-09 15:21:00,65.0,63.0,29.98,SW,216,1.0,4.0,94,0.02,,,0.04,,2013-05-09 19:21:00,
2013-05-09 15:31:00,65.0,63.0,29.98,South,182,1.0,6.0,93,0.01,,,0.04,,2013-05-09 19:31:00,
2013-05-09 15:41:00,65.0,63.0,29.97,SSW,200,0.0,2.0,94,0.00,,,0.04,,2013-05-09 19:41:00,
2013-05-09 15:52:00,65.0,63.0,29.97,SSW,200,0.0,2.0,94,0.00,,,0.04,,2013-05-09 19:52:00,
2013-05-09 16:01:00,65.0,63.0,29.96,South,175,0.0,4.0,93,0.00,,,0.04,,2013-05-09 20:01:00,
2013-05-09 16:11:00,65.0,63.0,29.96,South,175,0.0,4.0,93,0.00,,,0.04,,2013-05-09 20:11:00,
2013-05-09 16:22:00,65.0,63.0,29.95,SSW,213,0.0,3.0,92,0.00,,,0.04,,2013-05-09 20:22:00,
2013-05-09 16:32:00,65.0,63.0,29.95,SSW,213,0.0,0.0,92,0.00,,,0.04,,2013-05-09 20:32:00,
2013-05-09 16:42:00,65.0,63.0,29.96,SSW,213,0.0,1.0,92,0.00,,,0.04,,2013-05-09 20:42:00,
2013-05-09 16:52:00,65.0,63.0,29.96,SSW,213,0.0,1.0,92,0.00,,,0.04,,2013-05-09 20:52:00,
2013-05-09 17:01:00,65.0,63.0,29.96,SSW,213,0.0,1.0,92,0.00,,,0.04,,2013-05-09 21:01:00,
2013-05-09 17:11:00,65.0,63.0,29.96,SSW,213,0.0,1.0,92,0.00,,,0.04,,2013-05-09 21:11:00,
2013-05-09 17:22:00,65.0,63.0,29.96,SSW,213,0.0,0.0,93,0.01,,,0.05,,2013-05-09 21:22:00,
2013-05-09 17:32:00,64.0,62.0,29.96,SSW,213,0.0,1.0,94,0.04,,,0.08,,2013-05-09 21:32:00,
2013-05-09 17:43:00,64.0,63.0,29.97,SSW,213,0.0,1.0,95,0.07,,,0.11,,2013-05-09 21:43:00,
2013-05-09 17:53:00,64.0,63.0,29.97,SSW,213,0.0,1.0,95,0.07,,,0.11,,2013-05-09 21:53:00,
2013-05-09 18:03:00,64.0,63.0,29.96,West,277,1.0,3.0,95,0.13,,,0.17,,2013-05-09 22:03:00,
2013-05-09 18:12:00,63.0,62.0,29.95,West,259,1.0,4.0,95,0.18,,,0.23,,2013-05-09 22:12:00,
2013-05-09 18:22:00,63.0,62.0,29.95,West,259,1.0,4.0,95,0.18,,,0.23,,2013-05-09 22:22:00,
2013-05-09 18:33:00,62.0,61.0,29.92,SW,229,0.0,3.0,95,0.18,,,0.26,,2013-05-09 22:33:00,
2013-05-09 18:42:00,62.0,61.0,29.90,SE,146,0.0,2.0,96,0.16,,,0.27,,2013-05-09 22:42:00,
2013-05-09 18:52:00,62.0,61.0,29.90,SE,146,0.0,2.0,96,0.16,,,0.27,,2013-05-09 22:52:00,
2013-05-09 19:02:00,62.0,61.0,29.89,SE,146,0.0,1.0,96,0.09,,,0.27,,2013-05-09 23:02:00,
2013-05-09 19:12:00,62.0,61.0,29.90,WSW,244,0.0,2.0,97,0.04,,,0.27,,2013-05-09 23:12:00,
2013-05-09 19:21:00,62.0,61.0,29.90,WSW,244,0.0,2.0,97,0.04,,,0.27,,2013-05-09 23:21:00,
2013-05-09 19:32:00,62.0,61.0,29.90,SSW,205,0.0,3.0,97,0.01,,,0.27,,2013-05-09 23:32:00,
2013-05-09 19:42:00,62.0,61.0,29.88,WSW,250,0.0,3.0,97,0.00,,,0.27,,2013-05-09 23:42:00,
2013-05-09 19:52:00,62.0,61.0,29.88,WSW,250,0.0,3.0,97,0.00,,,0.27,,2013-05-09 23:52:00,
2013-05-09 20:01:00,62.0,61.0,29.87,SSE,163,2.0,6.0,97,0.00,,,0.27,,2013-05-10 00:01:00,
2013-05-09 20:11:00,62.0,61.0,29.87,South,170,0.0,2.0,97,0.00,,,0.27,,2013-05-10 00:11:00,
2013-05-09 20:22:00,62.0,61.0,29.87,South,170,0.0,2.0,97,0.00,,,0.27,,2013-05-10 00:22:00,
2013-05-09 20:32:00,61.0,60.0,29.87,SSE,159,0.0,7.0,97,0.00,,,0.27,,2013-05-10 00:32:00,
2013-05-09 20:42:00,61.0,60.0,29.87,South,169,0.0,3.0,97,0.00,,,0.27,,2013-05-10 00:42:00,
2013-05-09 20:52:00,61.0,60.0,29.87,South,169,0.0,3.0,97,0.00,,,0.27,,2013-05-10 00:52:00,
2013-05-09 21:01:00,61.0,60.0,29.87,South,169,0.0,3.0,97,0.00,,,0.27,,2013-05-10 01:01:00,
2013-05-09 21:11:00,61.0,60.0,29.89,WSW,237,0.0,1.0,97,0.01,,,0.28,,2013-05-10 01:11:00,
2013-05-09 21:21:00,61.0,60.0,29.89,WSW,237,0.0,1.0,97,0.01,,,0.28,,2013-05-10 01:21:00,
2013-05-09 21:31:00,61.0,60.0,29.89,WSW,238,0.0,6.0,97,0.13,,,0.40,,2013-05-10 01:31:00,
2013-05-09 21:42:00,61.0,60.0,29.88,SSE,167,0.0,3.0,98,0.16,,,0.43,,2013-05-10 01:42:00,
2013-05-09 21:52:00,61.0,60.0,29.88,SSE,167,0.0,3.0,98,0.16,,,0.43,,2013-05-10 01:52:00,
2013-05-09 22:01:00,61.0,60.0,29.87,South,173,0.0,3.0,98,0.18,,,0.46,,2013-05-10 02:01:00,
2013-05-09 22:11:00,61.0,60.0,29.86,SE,136,1.0,4.0,98,0.16,,,0.47,,2013-05-10 02:11:00,
2013-05-09 22:21:00,61.0,60.0,29.86,SE,136,1.0,4.0,98,0.16,,,0.47,,2013-05-10 02:21:00,
2013-05-09 22:31:00,61.0,60.0,29.86,South,186,0.0,5.0,98,0.08,,,0.48,,2013-05-10 02:31:00,
2013-05-09 22:42:00,61.0,60.0,29.86,SSE,150,1.0,5.0,98,0.06,,,0.50,,2013-05-10 02:42:00,
2013-05-09 22:52:00,61.0,60.0,29.86,SSE,150,1.0,5.0,98,0.06,,,0.50,,2013-05-10 02:52:00,
2013-05-09 23:01:00,61.0,60.0,29.86,SSE,147,0.0,3.0,98,0.04,,,0.50,,2013-05-10 03:01:00,
2013-05-09 23:11:00,61.0,60.0,29.86,SSE,147,0.0,3.0,98,0.04,,,0.50,,2013-05-10 03:11:00,
2013-05-09 23:21:00,61.0,60.0,29.85,ESE,121,0.0,6.0,98,0.04,,,0.51,,2013-05-10 03:21:00,
2013-05-09 23:32:00,61.0,60.0,29.85,SW,215,0.0,4.0,98,0.07,,,0.56,,2013-05-10 03:32:00,
2013-05-09 23:43:00,61.0,60.0,29.85,SW,215,0.0,4.0,98,0.07,,,0.56,,2013-05-10 03:43:00,
2013-05-09 23:53:00,62.0,61.0,29.84,SW,234,0.0,4.0,98,0.13,,,0.63,,2013-05-10 03:53:00,